COSMOS 1275 DEB, 17635

Orbit data source: Space-Track

COSMOS 1275 DEB, 17635 is space debris in LEO originally from a launch on Thu, 04 Jun 1981 UTC launched from the Plesetsk Missile And Space Complex (PKMTR). Debris objects in space refer to the collection of defunct objects orbiting the Earth. Examples of debris include non-operational satellites, rocket bodies, and fragments generated from explosions, collisions, or faulty payload assembly.

Loading next visibility...
Identifier
17635, 1981-053LE
Orbit
LEO
Country
Flag of CISCIS
Related business
Manufacturer
Unknown
Mission
Spacecraft
Bus & Motor
Unknown
Mass
Unknown
Launch date (UTC)
1981-06-04 (45 years ago)
Launch vehicle
Unknown
Launch site
Plesetsk Missile And Space Complex (PKMTR)
Object type
Payload
Rocket body
Debris
Shape & HBR
Unknown shape, 0.1 m
Radar Cross Section
Medium (>0.1 m² and <1 m²)

Expand to show TLE details & history
Last TLE update: 18 hours ago

TLE from 18 hours ago
0 COSMOS 1275 DEB
1 17635U 81053LE  26206.83553228  .00003719  00000-0  16056-2 0  9991
2 17635  82.8223 348.9225 0036992 158.5060 201.7687 14.23873792103670
Epoch: 2026-07-25T20:03Z
TLE epoch observation values (Epoch: 2026-07-25T20:03:09.988Z)
Latitude
0.00005°
Longitude
104.58878°
Altitude
839.967 km
Speed
7.42 km/s
True Right ascension
23h 15m 41s
True Declination
0° 00' 00"
Sunlit
Object was in full shadow at epoch
Visualization orbit readout
Latitude
Unknown
Longitude
Unknown
Altitude
Unknown
Speed
Unknown
Apparent Right ascension
Unknown
Apparent Declination
Unknown
Sunlit
N/A
Visualization observer readout
Local Sidereal Time
03:22:44
Azimuth
Unknown
Elevation
Unknown
Doppler factor
Unknown
Orbital elements
Apogee altitude
835.956 km
Perigee altitude
782.78 km
Semi-major axis
7,187.505 km
Eccentricity
0.0037
Inclination
82.8223°
RAAN
348.9225°
Arg. of periapsis
158.506°
True anomaly
201.61217°
Mean anomaly
201.7687°
Eccentric anomaly
201.69037°
Mean motion
3.56185 °/min
Orbital period
101.07 mins
BSTAR
0.0016056
Loading maneuver chart data...
Computing Atmospheric mass density...

Documentation

Showing up to 5 results
|